�������l�o���
Date,Time,MP-1(��Sv/h),MP-2(��Sv/h),MP-3(��Sv/h),MP-4(��Sv/h),MP-5(��Sv/h),MP-6(��Sv/h),MP-7(��Sv/h),MP-8(��Sv/h),����,����(m/s),���J
2023/04/14,00:00,0.577,0.833,0.500,1.048,0.740,0.326,0.584,0.552,�쐼,8.6,��
2023/04/14,00:10,0.574,0.835,0.501,1.044,0.739,0.325,0.582,0.551,�쐼,8.1,��
2023/04/14,00:20,0.576,0.835,0.499,1.046,0.739,0.325,0.582,0.551,�쐼,8.6,��
2023/04/14,00:30,0.576,0.835,0.501,1.044,0.738,0.327,0.584,0.552,�쐼,9.0,��
2023/04/14,00:40,0.574,0.835,0.501,1.047,0.740,0.327,0.583,0.551,��쐼,9.5,��
2023/04/14,00:50,0.576,0.837,0.501,1.044,0.739,0.327,0.582,0.550,�쐼,9.1,��
2023/04/14,01:00,0.577,0.836,0.501,1.045,0.739,0.326,0.582,0.550,�쐼,8.7,��
2023/04/14,01:10,0.576,0.835,0.500,1.045,0.738,0.325,0.583,0.550,��쐼,7.9,��
2023/04/14,01:20,0.575,0.836,0.501,1.044,0.739,0.328,0.582,0.551,��쐼,7.2,��
2023/04/14,01:30,0.576,0.835,0.499,1.046,0.739,0.325,0.583,0.550,��쐼,7.3,��
2023/04/14,01:40,0.577,0.836,0.500,1.045,0.740,0.325,0.586,0.551,��쐼,7.0,��
2023/04/14,01:50,0.574,0.835,0.502,1.045,0.737,0.326,0.582,0.551,�쐼,6.9,��
2023/04/14,02:00,0.576,0.836,0.501,1.045,0.740,0.327,0.582,0.552,�쐼,7.4,��
2023/04/14,02:10,0.575,0.835,0.502,1.046,0.739,0.326,0.586,0.551,��쐼,7.6,��
2023/04/14,02:20,0.575,0.834,0.501,1.045,0.740,0.327,0.582,0.550,��쐼,8.1,��
2023/04/14,02:30,0.575,0.836,0.502,1.046,0.738,0.327,0.582,0.551,��쐼,7.5,��
2023/04/14,02:40,0.575,0.835,0.501,1.046,0.740,0.326,0.583,0.551,��쐼,7.7,��
2023/04/14,02:50,0.575,0.835,0.501,1.046,0.737,0.325,0.582,0.551,��쐼,8.0,��
2023/04/14,03:00,0.575,0.834,0.500,1.045,0.740,0.326,0.584,0.551,��쐼,7.3,��
2023/04/14,03:10,0.574,0.835,0.502,1.046,0.739,0.327,0.583,0.551,�쐼,8.5,��
2023/04/14,03:20,0.574,0.834,0.502,1.046,0.739,0.327,0.583,0.552,�쐼,7.3,��
2023/04/14,03:30,0.575,0.833,0.502,1.045,0.739,0.326,0.583,0.551,�쐼,5.6,��
2023/04/14,03:40,0.572,0.836,0.500,1.045,0.741,0.327,0.584,0.552,��쐼,4.4,��
2023/04/14,03:50,0.575,0.836,0.500,1.045,0.737,0.325,0.583,0.550,��,3.1,��
2023/04/14,04:00,0.575,0.835,0.499,1.045,0.738,0.326,0.583,0.550,��쓌,5.3,��
2023/04/14,04:10,0.576,0.834,0.501,1.046,0.739,0.326,0.583,0.550,��,5.4,��
2023/04/14,04:20,0.574,0.835,0.502,1.044,0.740,0.326,0.585,0.550,��쓌,5.9,��
2023/04/14,04:30,0.574,0.836,0.501,1.044,0.738,0.325,0.584,0.551,��,5.0,��
2023/04/14,04:40,0.574,0.835,0.501,1.045,0.737,0.325,0.583,0.550,��쓌,6.2,��
2023/04/14,04:50,0.575,0.834,0.501,1.044,0.740,0.325,0.582,0.551,��쓌,6.2,��
2023/04/14,05:00,0.574,0.835,0.500,1.046,0.738,0.325,0.583,0.550,��쓌,5.7,��
2023/04/14,05:10,0.574,0.835,0.502,1.044,0.739,0.327,0.584,0.550,��쓌,6.1,��
2023/04/14,05:20,0.574,0.834,0.502,1.044,0.738,0.325,0.583,0.551,��쓌,6.1,��
2023/04/14,05:30,0.574,0.835,0.499,1.043,0.737,0.325,0.584,0.551,��쓌,6.4,��
2023/04/14,05:40,0.574,0.835,0.501,1.044,0.739,0.324,0.583,0.549,��쓌,5.5,�L
2023/04/14,05:50,0.574,0.835,0.501,1.046,0.739,0.327,0.582,0.549,��쓌,5.5,��
2023/04/14,06:00,0.576,0.835,0.500,1.045,0.738,0.325,0.581,0.549,��,5.2,��
2023/04/14,06:10,0.575,0.835,0.502,1.045,0.739,0.327,0.582,0.551,��,5.9,��
2023/04/14,06:20,0.576,0.835,0.500,1.045,0.738,0.326,0.584,0.551,��,7.0,��
2023/04/14,06:30,0.576,0.836,0.501,1.045,0.738,0.326,0.583,0.548,��,6.3,��
2023/04/14,06:40,0.573,0.836,0.501,1.046,0.739,0.326,0.582,0.550,��,5.2,��
2023/04/14,06:50,0.576,0.836,0.500,1.046,0.739,0.326,0.583,0.552,��,3.9,��
2023/04/14,07:00,0.574,0.836,0.501,1.045,0.736,0.326,0.582,0.551,��,2.9,��
2023/04/14,07:10,0.575,0.835,0.501,1.045,0.738,0.325,0.584,0.551,��쓌,3.2,��
2023/04/14,07:20,0.574,0.835,0.501,1.046,0.740,0.325,0.582,0.549,��쓌,4.6,��
2023/04/14,07:30,0.577,0.836,0.501,1.045,0.737,0.327,0.581,0.551,��쓌,4.0,��
2023/04/14,07:40,0.575,0.835,0.503,1.045,0.740,0.324,0.582,0.550,��쓌,4.1,��
2023/04/14,07:50,0.575,0.835,0.500,1.044,0.737,0.325,0.584,0.551,��쓌,3.6,��
2023/04/14,08:00,0.576,0.833,0.501,1.044,0.740,0.325,0.583,0.550,��쓌,3.6,��
2023/04/14,08:10,0.575,0.831,0.501,1.046,0.739,0.323,0.582,0.550,��쓌,3.7,��
2023/04/14,08:20,0.576,0.832,0.502,1.046,0.737,0.324,0.582,0.548,��쓌,3.4,��
2023/04/14,08:30,0.577,0.828,0.502,1.044,0.737,0.324,0.582,0.548,��쓌,3.4,��
2023/04/14,08:40,0.576,0.830,0.500,1.045,0.738,0.325,0.581,0.548,��쓌,3.6,��
2023/04/14,08:50,0.574,0.831,0.501,1.047,0.738,0.325,0.581,0.548,��쓌,3.1,��
2023/04/14,09:00,0.576,0.831,0.501,1.047,0.739,0.325,0.581,0.548,��쓌,4.0,��
2023/04/14,09:10,0.575,0.832,0.502,1.045,0.740,0.325,0.582,0.549,��쓌,4.9,��
2023/04/14,09:20,0.577,0.832,0.503,1.047,0.738,0.324,0.582,0.548,��쓌,6.3,��
2023/04/14,09:30,0.576,0.834,0.501,1.046,0.737,0.324,0.582,0.547,��쓌,8.5,��
2023/04/14,09:40,0.575,0.831,0.501,1.046,0.737,0.326,0.581,0.546,��쓌,9.4,��
2023/04/14,09:50,0.574,0.831,0.499,1.048,0.737,0.326,0.581,0.547,��쓌,11.6,��
2023/04/14,10:00,0.573,0.832,0.498,1.047,0.737,0.326,0.583,0.549,��쓌,10.8,��
2023/04/14,10:10,0.574,0.834,0.500,1.046,0.737,0.324,0.583,0.548,��,9.6,��
2023/04/14,10:20,0.575,0.831,0.500,1.046,0.738,0.326,0.582,0.548,��쓌,9.6,��
2023/04/14,10:30,0.575,0.831,0.498,1.047,0.738,0.326,0.583,0.547,��쓌,8.4,��
2023/04/14,10:40,0.575,0.832,0.498,1.048,0.739,0.325,0.583,0.549,��,9.0,��
2023/04/14,10:50,0.574,0.833,0.501,1.050,0.738,0.325,0.583,0.548,��쓌,8.0,��
2023/04/14,11:00,0.575,0.832,0.501,1.049,0.736,0.326,0.583,0.548,��쓌,9.2,��
2023/04/14,11:10,0.575,0.834,0.500,1.048,0.730,0.327,0.583,0.547,��쓌,10.2,��
2023/04/14,11:20,0.574,0.833,0.499,1.048,0.727,0.327,0.583,0.549,��쓌,10.0,��
2023/04/14,11:30,0.575,0.833,0.500,1.048,0.732,0.325,0.583,0.548,��쓌,9.5,��
2023/04/14,11:40,0.576,0.834,0.501,1.046,0.739,0.326,0.583,0.547,��쓌,9.2,��
2023/04/14,11:50,0.576,0.835,0.503,1.045,0.738,0.326,0.584,0.547,��쓌,8.3,��
2023/04/14,12:00,0.577,0.836,0.503,1.045,0.739,0.326,0.584,0.549,��쓌,10.0,��
2023/04/14,12:10,0.575,0.837,0.504,1.047,0.740,0.326,0.584,0.549,��쓌,10.2,��
2023/04/14,12:20,0.575,0.835,0.502,1.047,0.740,0.326,0.583,0.549,��쓌,8.6,��
2023/04/14,12:30,0.576,0.836,0.504,1.046,0.739,0.327,0.584,0.551,��쓌,8.7,��
2023/04/14,12:40,0.576,0.835,0.503,1.048,0.741,0.327,0.585,0.549,��쓌,9.0,��
2023/04/14,12:50,0.576,0.835,0.503,1.047,0.739,0.327,0.584,0.549,��,9.2,��
2023/04/14,13:00,0.578,0.834,0.505,1.047,0.741,0.327,0.583,0.549,��,8.8,��
2023/04/14,13:10,0.577,0.835,0.502,1.047,0.740,0.326,0.583,0.549,��쓌,9.2,��
2023/04/14,13:20,0.576,0.833,0.504,1.048,0.740,0.326,0.583,0.549,��,9.9,��
2023/04/14,13:30,0.577,0.834,0.503,1.049,0.739,0.326,0.584,0.550,��,12.4,��
2023/04/14,13:40,0.577,0.834,0.502,1.048,0.741,0.327,0.582,0.549,��쓌,11.9,��
2023/04/14,13:50,0.576,0.832,0.503,1.047,0.740,0.327,0.583,0.549,��쓌,11.4,��
2023/04/14,14:00,0.575,0.834,0.501,1.049,0.741,0.326,0.583,0.550,��쓌,9.0,��
2023/04/14,14:10,0.576,0.832,0.502,1.048,0.739,0.326,0.582,0.549,��쓌,8.0,��
2023/04/14,14:20,0.574,0.835,0.502,1.050,0.740,0.326,0.584,0.549,��쓌,9.8,��
2023/04/14,14:30,0.575,0.835,0.501,1.048,0.740,0.327,0.585,0.551,��쓌,12.2,��
2023/04/14,14:40,0.576,0.834,0.501,1.048,0.740,0.328,0.583,0.549,��,12.2,��
2023/04/14,14:50,0.576,0.835,0.502,1.049,0.738,0.327,0.584,0.550,��쓌,10.5,��
2023/04/14,15:00,0.576,0.837,0.502,1.049,0.740,0.326,0.584,0.549,��,8.4,��
2023/04/14,15:10,0.577,0.836,0.503,1.048,0.740,0.326,0.583,0.549,��,7.7,��
2023/04/14,15:20,0.577,0.835,0.503,1.049,0.740,0.327,0.585,0.549,��쓌,8.6,��
2023/04/14,15:30,0.574,0.836,0.503,1.050,0.740,0.327,0.584,0.550,��,9.7,��
2023/04/14,15:40,0.577,0.833,0.504,1.045,0.742,0.327,0.584,0.548,��,8.7,��
2023/04/14,15:50,0.578,0.835,0.503,1.045,0.741,0.326,0.583,0.549,��,8.0,��
2023/04/14,16:00,0.577,0.836,0.503,1.047,0.740,0.326,0.585,0.548,��,7.5,��
2023/04/14,16:10,0.575,0.836,0.502,1.047,0.740,0.327,0.584,0.550,��,7.2,��
2023/04/14,16:20,0.576,0.834,0.502,1.048,0.740,0.327,0.585,0.549,��,5.3,��
2023/04/14,16:30,0.576,0.836,0.501,1.046,0.739,0.326,0.585,0.550,��,6.6,��
2023/04/14,16:40,0.580,0.835,0.500,1.049,0.739,0.325,0.583,0.550,��,6.4,��
2023/04/14,16:50,0.577,0.836,0.501,1.050,0.740,0.326,0.583,0.548,��,7.3,��
2023/04/14,17:00,0.576,0.835,0.503,1.049,0.742,0.327,0.584,0.548,��,6.6,��
2023/04/14,17:10,0.574,0.838,0.503,1.047,0.740,0.327,0.583,0.549,��,5.9,��
2023/04/14,17:20,0.577,0.835,0.502,1.048,0.738,0.327,0.584,0.549,��,4.5,��
2023/04/14,17:30,0.575,0.835,0.502,1.051,0.740,0.328,0.583,0.549,�쐼,2.3,��
2023/04/14,17:40,0.576,0.838,0.503,1.048,0.740,0.327,0.585,0.548,��쐼,1.7,��
2023/04/14,17:50,0.577,0.839,0.503,1.051,0.741,0.326,0.584,0.550,��쐼,2.0,��
2023/04/14,18:00,0.578,0.838,0.502,1.049,0.743,0.327,0.584,0.552,��,1.7,��
2023/04/14,18:10,0.576,0.838,0.504,1.051,0.742,0.327,0.584,0.551,�k�k��,3.3,��
2023/04/14,18:20,0.578,0.839,0.505,1.049,0.743,0.327,0.584,0.551,�k�k��,4.7,��
2023/04/14,18:30,0.579,0.839,0.504,1.049,0.743,0.327,0.585,0.551,�k�k��,6.1,��
2023/04/14,18:40,0.577,0.839,0.505,1.051,0.742,0.327,0.586,0.551,�k�k��,6.8,��
2023/04/14,18:50,0.579,0.838,0.505,1.050,0.743,0.329,0.585,0.552,�k�k��,6.5,��
2023/04/14,19:00,0.578,0.839,0.504,1.048,0.741,0.327,0.585,0.551,�k�k��,6.7,��
2023/04/14,19:10,0.580,0.840,0.504,1.050,0.744,0.327,0.584,0.550,�k�k��,6.9,��
2023/04/14,19:20,0.579,0.838,0.503,1.051,0.742,0.326,0.586,0.550,�k�k��,6.6,��
2023/04/14,19:30,0.578,0.838,0.504,1.049,0.742,0.328,0.584,0.550,�k�k��,6.4,��
2023/04/14,19:40,0.578,0.840,0.505,1.049,0.743,0.326,0.584,0.551,�k�k��,6.5,��
2023/04/14,19:50,0.578,0.839,0.504,1.050,0.744,0.327,0.583,0.551,�k�k��,5.2,��
2023/04/14,20:00,0.576,0.839,0.504,1.048,0.744,0.328,0.584,0.549,�k�k��,5.2,��
2023/04/14,20:10,0.579,0.838,0.504,1.049,0.743,0.328,0.585,0.551,�k�k��,4.6,��
2023/04/14,20:20,0.578,0.840,0.506,1.049,0.742,0.328,0.585,0.552,�k�k��,3.8,��
2023/04/14,20:30,0.579,0.839,0.503,1.049,0.743,0.327,0.584,0.550,�k��,3.8,��
2023/04/14,20:40,0.579,0.838,0.503,1.051,0.743,0.328,0.585,0.550,�k��,3.3,��
2023/04/14,20:50,0.578,0.838,0.504,1.052,0.741,0.327,0.586,0.552,�k�k��,3.2,��
2023/04/14,21:00,0.579,0.839,0.504,1.051,0.743,0.327,0.585,0.551,�k��,2.6,��
2023/04/14,21:10,0.577,0.838,0.505,1.048,0.741,0.327,0.584,0.553,�k��,2.0,��
2023/04/14,21:20,0.578,0.837,0.504,1.049,0.743,0.327,0.585,0.551,�k��,2.0,��
2023/04/14,21:30,0.579,0.836,0.503,1.049,0.743,0.327,0.585,0.550,��,1.5,��
2023/04/14,21:40,0.576,0.837,0.504,1.049,0.742,0.328,0.585,0.551,��쐼,0.8,��
2023/04/14,21:50,0.577,0.837,0.503,1.049,0.742,0.327,0.585,0.551,�쐼,1.5,��
2023/04/14,22:00,0.578,0.839,0.504,1.050,0.743,0.328,0.586,0.552,��,2.8,��
2023/04/14,22:10,0.579,0.841,0.504,1.049,0.742,0.328,0.585,0.550,��,3.4,��
2023/04/14,22:20,0.577,0.837,0.505,1.050,0.743,0.327,0.584,0.550,��쐼,3.3,��
2023/04/14,22:30,0.578,0.839,0.502,1.049,0.741,0.328,0.585,0.550,��,3.9,��
2023/04/14,22:40,0.579,0.836,0.504,1.051,0.742,0.328,0.585,0.550,��쐼,4.8,��
2023/04/14,22:50,0.577,0.838,0.503,1.050,0.743,0.328,0.584,0.551,��쐼,4.9,��
2023/04/14,23:00,0.578,0.841,0.504,1.052,0.741,0.328,0.585,0.551,��,6.2,��
2023/04/14,23:10,0.577,0.837,0.503,1.050,0.742,0.328,0.584,0.550,��,6.2,��
2023/04/14,23:20,0.578,0.839,0.503,1.048,0.744,0.328,0.587,0.551,��쐼,6.6,��
2023/04/14,23:30,0.578,0.837,0.503,1.051,0.744,0.328,0.582,0.551,��쐼,7.2,��
2023/04/14,23:40,0.578,0.839,0.505,1.050,0.742,0.329,0.584,0.551,��쐼,5.7,��
2023/04/14,23:50,0.576,0.837,0.503,1.051,0.743,0.328,0.586,0.552,�쐼,4.6,��
